sat.trackr.live / text

‹ back to catalog

STARLINK-35850

NORAD 66352 · 2025-254E

PAYLOAD ACTIVE UNKNOWN

§ Identity

Operator
Country
US
Launch date
2025-11-06
Launch site
AFWTR
Launch vehicle
Mass (kg)
RCS (m²)

Purposes: comms

External: N2YO · Heavens-Above · Gunter

§ Orbital elements

Epoch: 2026-09-20T13:37:47.311680Z

Period
93.85 min
Inclination
53.1594°
Eccentricity
0.0000946
Mean motion
15.34406668 rev/d
Perigee alt
462.0 km
Apogee alt
463.3 km
Semi-major
6,840.8 km
B*
7.0809e-4
RAAN
45.0475°
Arg perigee
88.2000°
Mean anomaly
271.9111°
Rev number
4,884

§ Raw data

STARLINK-358501 66352U 25254E   26263.56790870  .00023628  00000+0  70809-3 0  99982 66352  53.1594  45.0475 0000946  88.2000 271.9111 15.34406668 48842

JSON: /api/v1/satellites/66352 · /tle

For live sub-satellite position, see the globe view (requires WebGL).

§ Visibility from observer

Set your observer location to see the next 7 days of passes ≥ 10°. The values pass through the URL so the page stays shareable.

No JS? Fill the form by hand. The geolocation button needs JavaScript.